Tracking 29892 objects as of 21-Nov-2024
HD Live streaming from Space Station
objects crossing your sky now

DELTA 1 DEB

Track DELTA 1 DEB now!
10-day predictions


NORAD ID: 9320
Int'l Code: 1975-004EX
Perigee: 641.7 km
Apogee: 719.0 km
Inclination: 98.5 °
Period: 98.2 minutes
Semi major axis: 7051 km
RCS: 0.0034 m2 (small)
Launch date: January 22, 1975
Source: United States (US)
Launch site: AIR FORCE WESTERN TEST RANGE (AFWTR)

Note: This is SATELLITE DEBRIS
Your satellite tracking list
Your tracking list is empty




NASA's NSSDC Master Catalog

Two Line Element Set (TLE):
1  9320U 75004EX  24325.55633218  .00001087  00000-0  20292-3 0  9993
2  9320  98.5284   2.6193 0054775 140.3653 220.1573 14.66211728506709
Source of the keplerian elements: AFSPC